Weather History for Vancouver, WA

Change the Weather History Date:

Sunday, April 28, 2013

  Actual Average Record
Temperature  
Mean Temperature 60 °F 54 °F  
Max Temperature 67 °F 64 °F 87 °F (1926)
Min Temperature 52 °F 44 °F 32 °F (1908)
Degree Days  
Heating Degree Days 5    
Month to date heating degree days 363  
Since 1 July heating degree days 3926  
Cooling Degree Days 0    
Month to date cooling degree days 0  
Year to date cooling degree days 0  
Growing Degree Days 8 (Base 50)    
Moisture  
Dew Point 45 °F    
Average Humidity 63    
Maximum Humidity 89    
Minimum Humidity 37    
Precipitation  
Precipitation 0.00 in 0.08 in 1.28 in (1951)
Month to date precipitation 2.11 2.84  
Year to date precipitation 8.25 15.94  
Snow  
Snow 0.00 in - - ()
Month to date snowfall 0.0  
Since 1 July snowfall 0.0  
Snow Depth 0.00 in    
Sea Level Pressure  
Sea Level Pressure 30.21 in    
Wind  
Wind Speed 3 mph (West)    
Max Wind Speed 13 mph    
Max Gust Speed 16 mph    
Visibility 10 miles    
Events Rain    
T = Trace of Precipitation, MM = Missing Value Source: NWS Daily Summary

Daily Weather History Graph

Daily Weather History Graph

Search for Another Location

Airport:

Trip Planner

Search our weather history database for the weather conditions in past years. The results will help you decide how hot, cold, wet, or windy it might be!

Date:

Astronomy

Apr. 28, 2013 Rise Set
Actual Time 6:02 AM PDT 8:14 PM PDT
Civil Twilight 5:30 AM PDT 8:46 PM PDT
Nautical Twilight 4:49 AM PDT 9:27 PM PDT
Astronomical Twilight 4:05 AM PDT 10:12 PM PDT
Moon 11:55 PM PDT (4/28) 8:19 AM PDT (4/28)
Length of Visible Light 15h 16m
Length of Day
14h 11m
Waning Gibbous, 88% of the Moon is Illuminated
Apr 28
Waning Gibbous
May 2
Last Quarter
May 9
New
May 17
First Quarter
May 24
Full

Hourly Weather History & Observations

Time (PDT) Temp. Dew Point Humidity Pressure Visibility Wind Dir Wind Speed Gust Speed Precip Events Conditions
12:53 AM 54.0 °F 46.0 °F 75% 30.26 in 10.0 mi Calm Calm - N/A   Overcast
1:53 AM 54.0 °F 46.0 °F 75% 30.25 in 10.0 mi North 3.5 mph - N/A   Overcast
2:53 AM 53.1 °F 46.9 °F 80% 30.25 in 10.0 mi Calm Calm - N/A   Overcast
3:18 AM 53.6 °F 46.4 °F 77% 30.24 in 10.0 mi Calm Calm - N/A   Overcast
3:44 AM 53.6 °F 46.4 °F 77% 30.24 in 10.0 mi Calm Calm - N/A   Overcast
3:51 AM 53.6 °F 46.4 °F 77% 30.24 in 10.0 mi Calm Calm - N/A   Overcast
3:53 AM 53.1 °F 46.9 °F 80% 30.24 in 10.0 mi Calm Calm - N/A   Overcast
4:07 AM 53.6 °F 46.4 °F 77% 30.24 in 10.0 mi Calm Calm - N/A   Overcast
4:17 AM 53.6 °F 46.4 °F 77% 30.24 in 10.0 mi Calm Calm - N/A   Overcast
4:53 AM 53.1 °F 46.9 °F 80% 30.24 in 10.0 mi Calm Calm - N/A   Overcast
5:13 AM 53.6 °F 48.2 °F 82% 30.23 in 10.0 mi ESE 5.8 mph - N/A   Overcast
5:51 AM 53.6 °F 48.2 °F 82% 30.23 in 10.0 mi ESE 4.6 mph - N/A   Overcast
6:53 AM 53.1 °F 48.0 °F 83% 30.24 in 10.0 mi Calm Calm - N/A   Overcast
7:53 AM 54.0 °F 46.9 °F 77% 30.25 in 10.0 mi SSW 4.6 mph - N/A   Overcast
8:53 AM 55.0 °F 46.9 °F 74% 30.26 in 10.0 mi WSW 3.5 mph - N/A   Overcast
9:53 AM 57.0 °F 48.0 °F 72% 30.26 in 10.0 mi SSW 3.5 mph - N/A   Overcast
10:53 AM 59.0 °F 46.9 °F 64% 30.26 in 10.0 mi Variable 3.5 mph - N/A   Mostly Cloudy
11:53 AM 60.1 °F 46.0 °F 60% 30.25 in 10.0 mi West 4.6 mph - N/A   Mostly Cloudy
12:53 PM 61.0 °F 44.1 °F 54% 30.23 in 10.0 mi West 4.6 mph - N/A   Mostly Cloudy
1:53 PM 63.0 °F 41.0 °F 45% 30.21 in 10.0 mi West 5.8 mph - N/A   Mostly Cloudy
2:53 PM 64.0 °F 39.0 °F 40% 30.21 in 10.0 mi WNW 8.1 mph - N/A   Overcast
3:53 PM 64.9 °F 37.9 °F 37% 30.18 in 10.0 mi Calm Calm - N/A   Scattered Clouds
4:53 PM 64.0 °F 41.0 °F 43% 30.16 in 10.0 mi WNW 4.6 mph - N/A   Partly Cloudy
5:53 PM 64.9 °F 39.0 °F 39% 30.15 in 10.0 mi WSW 5.8 mph - N/A   Partly Cloudy
6:53 PM 63.0 °F 39.9 °F 43% 30.12 in 10.0 mi WNW 8.1 mph - N/A   Overcast
7:53 PM 62.1 °F 41.0 °F 46% 30.10 in 10.0 mi Calm Calm - N/A   Overcast
8:53 PM 60.1 °F 42.1 °F 51% 30.11 in 10.0 mi Calm Calm - N/A   Overcast
9:53 PM 57.9 °F 44.1 °F 60% 30.11 in 10.0 mi NW 4.6 mph - 0.00 in Rain Light Rain
10:53 PM 55.9 °F 42.1 °F 60% 30.09 in 10.0 mi West 5.8 mph - 0.00 in   Overcast
11:53 PM 57.0 °F 41.0 °F 55% 30.08 in 10.0 mi SW 10.4 mph 23.0 mph N/A   Overcast